Hourly Data Report for September 10, 2020

TORONTO CITY
ONTARIO
Current Station Operator: ECCC - MSC

43°40'00.000" N
79°24'00.000" W
112.50 m
6158355
71508
XTO

Download Data

Hourly Data (September 2020)
Hourly Data Report for September 10, 2020
TIME
LST
Temp Definition
°C
Dew Point Definition
°C
Rel Hum Definition
%
Precip. Amount Definition
mm

Wind Dir Definition
10's deg

Wind Spd Definition
km/h
Visibility Definition
km
Stn Press Definition
kPa
Hmdx Definition


Wind Chill Definition


Weather Definition


00:00 16.7 15.1 90 0.0       101.10     LegendNANA
01:00 16.7 15.0 90 0.0       101.03     LegendNANA
02:00 16.5 14.9 90 0.0       100.95     LegendNANA
03:00 16.5 15.0 91 0.0       100.95     LegendNANA
04:00 16.7 15.2 91 0.0       100.95     LegendNANA
05:00 16.9 15.5 91 0.0       101.03     LegendNANA
06:00 16.9 15.5 91 0.0       101.02     LegendNANA
07:00 17.3 15.9 91 0.0       101.05     LegendNANA
08:00 17.6 16.0 90 0.0       101.13     LegendNANA
09:00 17.4 14.1 81 0.0       101.16     LegendNANA
10:00 19.1 13.0 68 0.0       101.17     LegendNANA
11:00 19.9 12.9 64 0.0       101.18     LegendNANA
12:00 20.3 11.8 58 0.0       101.17     LegendNANA
13:00 19.9 11.2 57 0.0       101.18     LegendNANA
14:00 18.4 10.8 61 0.0       101.18     LegendNANA
15:00 18.8 10.7 59 0.0       101.18     LegendNANA
16:00 18.2 10.3 60 0.0       101.17     LegendNANA
17:00 17.3 9.9 62 0.0       101.17     LegendNANA
18:00 16.4 9.4 63 0.0       101.21     LegendNANA
19:00 15.6 9.4 66 0.0       101.20     LegendNANA
20:00 15.3 9.0 66 0.0       101.26     LegendNANA
21:00 15.0 9.0 67 0.0       101.26     LegendNANA
22:00 14.7 9.0 69 0.0       101.27     LegendNANA
23:00 14.4 9.0 70 0.0       101.26     LegendNANA

Notes on Data Quality.

Legend

  • E = Estimated
  • M = Missing
  • NA = Not Available*
  • [empty] = Indicates an unobserved value
Date modified: